Regional Weather Roundup
Issued by NWS

Home | Current Version | Previous Version | Text Only | Print | Product List | Glossary On
Versions: 1 2 3 4 5 6 7 8 9 10 11 12 13 14 15 16 17 18 19 20 21 22 23 24 25 26 27 28 29 30 31 32 33 34 35 36 37 38 39 40 41 42 43 44 45 46 47 48 49 50
000
ASUS43 KLMK 230110
RWRKY
KENTUCKY REGIONAL WEATHER ROUNDUP
NATIONAL WEATHER SERVICE LOUISVILLE KY
900 PM EDT FRI JUL 22 2016

NOTE "FAIR" INDICATES FEW OR NO CLOUDS BELOW 12,000 FEET
WITH NO SIGNIFICANT WEATHER AND/OR OBSTRUCTIONS TO VISIBILITY.

KYZ001>023-026-027-061>063-070>075-230200-
WESTERN AND SOUTH CENTRAL KENTUCKY

CITY           SKY/WX    TMP DP  RH WIND       PRES   REMARKS
PADUCAH        CLOUDY    80  75  84 CALM      29.98S
HENDERSON      PTCLDY    81  73  78 CALM      29.98R
OWENSBORO      CLOUDY    82  75  79 CALM      29.99F
HOPKINSVILLE   CLOUDY    81  73  77 SW5       29.98F
BOWLING GREEN  CLOUDY    78  74  87 SE3       30.00S
GLASGOW        MOCLDY    74  74 100 CALM      30.01R
$$

KYZ024-025-028>034-038-045-046-053-230200-
NORTH CENTRAL KENTUCKY

CITY           SKY/WX    TMP DP  RH WIND       PRES   REMARKS
LOUISVILLE/SDF CLOUDY    85  71  63 SW10      29.99R HX  90
LOUISVILLE/LOU PTCLDY    87  72  60 E3        30.00R HX  93
FORT KNOX      NOT AVBL
$$

KYZ035>037-039>044-047>052-055>060-089>105-230200-
NORTHEAST KENTUCKY

CITY           SKY/WX    TMP DP  RH WIND       PRES   REMARKS
LEXINGTON      CLOUDY    78  70  76 S10       30.04R
COVINGTON      MOCLDY    79  73  82 S6        30.02R
FRANKFORT      CLOUDY    80  70  71 SE3       30.02R
$$

KYZ054-064>069-076>088-106>120-230200-
SOUTHEAST KENTUCKY

CITY           SKY/WX    TMP DP  RH WIND       PRES   REMARKS
JACKSON        PTCLDY    72  69  90 CALM      30.03F
LONDON         CLOUDY    78  66  66 N14       30.06R
SOMERSET       CLOUDY    72  70  94 NW13      30.08R
MIDDLESBORO    PTCLDY    81  75  82 W3        30.04S
MONTICELLO     TSTM     N/A N/A N/A N17       30.06R
$$




USA.gov is the U.S. government's official web portal to all federal, state and local government web resources and services.